Вернуться в каталог

SKYBEE-A01

АктивенСвязьSSO
NORAD 62671·PAYLOAD·🇩🇪 Germany

Запущен Jan 14, 2025 с Vandenberg Space Force Base

Loading…

Ближайшие Пролёты (ближайшие 24 часа)

TLE

СвежийSource: Space-Track

Эпоха: Sep 14, 2026, 13:05 UTC

1 62671U 25009BQ  26257.54567649  .00001854  00000-0  85744-4 0  9996
2 62671  97.3927 334.5401 0006019  35.9893 324.1747 15.21370973149925

Отслеживайте SKYBEE-A01 в реальном времени с AllMySat

Download on the App Store